Theta_e
357 358 358 358 358 359 359 357 357 359 359 359 359 359 359 360 360 359 357 355 353 351 349 348 351 354 355 354 353 352 351 352 350 349 351 350 351 348 339 334 334 334 335 336 336 338 339 341 343 345 346 347 346 346 345 345 345 347 351 351 346 342 344 349 352 353 353 353 352 351 351 351 351 352
358 358 359 359 359 359 359 357 357 359 360 359 359 359 359 360 360 361 361 359 354 352 351 349 350 352 353 353 352 349 349 350 350 349 349 350 348 342 338 339 340 338 339 340 339 340 339 339 339 340 342 343 344 345 345 346 346 347 350 352 349 342 339 344 349 352 353 353 353 352 352 351 351 352
358 359 359 360 360 360 360 358 357 358 360 359 359 359 359 360 360 360 360 358 355 353 352 352 351 350 351 353 352 351 349 348 349 350 351 351 348 344 344 347 346 344 343 342 341 342 341 341 340 339 339 340 343 345 345 345 346 347 349 352 351 345 339 340 345 350 352 352 353 353 352 352 351 351
358 359 360 360 361 361 361 359 357 357 358 359 358 358 359 359 358 359 358 357 357 355 353 352 352 350 351 352 352 352 350 348 349 350 351 351 351 349 348 348 348 348 347 344 341 340 341 341 340 340 340 339 341 344 345 345 345 345 346 350 351 348 341 339 341 346 350 350 351 352 352 352 352 352
359 359 360 360 360 360 360 358 357 355 356 357 358 358 358 358 358 357 358 357 357 357 355 353 352 351 351 351 351 351 350 349 350 350 349 350 349 348 346 346 346 346 347 345 340 338 340 340 340 341 342 341 341 342 343 343 342 342 343 348 351 348 344 341 340 344 347 349 350 351 352 352 352 352
359 359 360 359 359 359 358 357 355 354 353 354 356 356 356 356 355 355 356 357 357 356 356 355 353 351 350 350 350 351 352 351 352 352 351 349 346 344 344 344 343 344 345 345 341 340 341 341 342 342 343 344 344 343 343 341 340 339 341 346 350 348 346 343 341 343 346 348 349 350 351 352 352 352
358 358 358 357 356 355 355 356 355 353 353 353 353 353 354 354 354 353 355 356 357 357 356 355 353 350 351 351 351 351 351 352 353 353 351 348 346 345 344 342 341 342 344 343 342 344 344 343 344 344 344 345 344 345 345 344 343 341 341 345 348 348 347 345 342 343 346 346 347 349 350 351 352 352
357 357 357 356 354 354 355 355 354 352 351 352 353 353 353 354 355 354 355 356 357 357 356 356 355 353 354 353 351 350 350 350 351 352 352 350 348 347 345 342 341 341 341 342 343 345 346 346 347 347 345 345 345 345 346 345 345 344 343 345 346 347 347 343 342 344 345 345 345 347 349 350 352 353
357 356 355 355 354 355 355 354 353 351 351 352 352 351 352 352 354 355 355 355 356 357 358 357 356 356 355 353 352 352 353 351 350 350 351 349 347 348 347 343 341 341 341 341 343 345 347 348 349 349 348 348 347 347 346 345 345 344 344 344 344 343 342 340 340 343 345 345 345 346 349 350 352 353
357 356 355 355 355 354 354 353 352 352 353 353 351 351 352 353 353 354 354 355 356 357 357 356 356 355 353 353 353 354 354 353 350 348 348 347 347 347 348 347 345 343 343 344 346 347 349 349 350 351 351 351 351 350 349 346 344 344 343 343 343 341 339 337 338 342 344 344 345 347 349 351 352 354
356 355 355 355 355 355 355 354 352 352 353 353 351 352 353 353 353 352 351 351 353 353 353 352 351 350 350 351 351 350 351 353 354 352 349 347 347 348 351 353 351 349 348 349 349 349 350 351 351 352 352 353 353 352 352 350 348 346 343 343 344 342 340 337 336 339 341 342 344 346 349 352 353 354
354 354 353 352 353 353 354 354 353 352 352 352 352 351 352 352 353 352 350 350 352 352 351 350 349 350 350 351 351 350 350 352 354 352 348 347 349 350 353 354 354 355 354 353 350 349 351 352 352 353 354 354 355 354 354 354 354 351 346 343 344 343 342 340 338 337 339 340 342 343 346 350 353 354
353 354 352 351 350 350 352 353 351 350 349 350 351 353 354 354 354 354 352 352 353 353 352 351 350 350 350 350 350 348 348 348 349 349 350 351 353 353 353 353 354 355 355 354 353 353 354 354 354 355 355 355 356 355 354 355 356 353 348 344 344 343 343 342 340 339 338 339 341 342 343 346 351 353
353 353 351 350 350 350 351 350 347 346 347 348 350 352 354 356 357 358 357 355 353 353 353 351 349 348 348 347 346 346 347 347 346 346 348 351 354 354 355 355 355 355 355 356 357 358 357 356 356 357 357 357 357 356 354 355 354 350 347 345 344 343 343 344 343 341 339 338 339 340 341 343 347 352
352 351 350 350 350 351 352 351 349 348 347 347 348 349 350 351 353 356 357 358 356 355 354 352 350 350 350 350 351 351 350 348 347 349 350 353 355 356 357 358 356 356 356 358 359 359 357 357 358 358 359 358 358 356 355 355 353 349 346 345 344 343 344 344 344 342 340 338 338 339 339 340 344 350
352 350 349 348 348 348 352 354 356 356 352 348 347 348 349 349 350 351 353 355 357 358 359 357 356 356 356 356 356 356 355 355 355 356 356 356 357 357 357 358 357 356 357 359 359 359 357 357 358 358 358 357 357 356 357 357 356 352 349 346 344 344 344 344 344 343 340 338 337 337 339 340 344 349
353 353 352 352 351 349 350 354 357 359 358 355 351 348 348 348 348 349 349 350 352 355 358 359 359 359 360 360 360 359 360 361 360 359 359 358 358 357 357 357 358 357 357 357 357 357 357 357 356 356 355 355 355 356 357 358 358 356 352 347 345 345 344 342 341 340 340 340 341 342 344 344 346 349
353 354 356 358 357 354 354 356 358 360 361 361 360 358 356 355 354 354 354 353 353 354 355 356 358 359 360 360 361 361 361 361 361 360 359 359 358 358 358 358 358 357 356 356 358 360 360 358 356 356 355 354 354 355 357 358 359 358 354 348 345 345 344 344 343 342 341 342 344 345 346 347 348 350
353 355 357 359 359 358 358 358 359 361 361 361 362 363 362 362 361 360 360 359 359 358 357 357 357 358 359 359 359 359 358 358 358 357 356 356 356 357 358 358 358 358 357 357 359 360 361 359 356 356 355 354 354 356 358 358 359 359 356 351 349 349 349 349 348 347 345 345 345 346 345 346 346 346
356 358 359 359 359 359 360 360 359 358 356 355 358 361 363 362 361 360 360 359 358 358 357 357 357 356 355 355 354 354 354 354 354 353 351 352 353 354 356 357 357 357 355 353 354 356 357 357 357 356 356 356 357 359 359 358 358 358 358 356 355 355 355 355 353 351 349 347 347 348 349 349 349 347
357 358 358 358 359 359 360 359 358 355 352 353 357 360 360 360 360 359 359 358 357 357 357 356 356 355 354 353 353 353 353 354 353 351 349 350 352 353 354 356 356 355 355 353 353 355 356 357 358 358 358 358 358 359 358 357 357 358 357 357 358 358 358 357 356 355 354 351 349 348 348 350 351 351
359 359 357 355 355 357 357 356 355 353 351 352 356 357 356 357 358 357 357 356 356 356 356 356 355 355 354 354 355 355 355 355 355 353 351 352 353 353 354 355 355 355 356 355 355 358 358 358 359 359 358 359 359 358 357 358 358 358 357 357 358 358 358 357 357 356 355 355 353 351 349 349 351 352
357 356 355 354 353 354 354 353 352 351 350 351 353 354 354 354 354 354 354 355 355 354 354 355 354 354 354 355 356 357 356 356 357 356 354 355 355 354 354 354 354 356 357 356 357 359 358 358 358 357 357 358 358 357 357 358 358 357 357 357 358 358 357 357 357 357 356 356 355 354 352 351 353 353
353 352 352 353 353 352 351 351 351 351 351 350 349 350 351 353 353 352 351 350 349 348 350 351 351 351 352 354 355 356 355 356 357 357 356 356 356 355 356 355 354 355 356 356 357 358 358 358 359 357 356 357 358 358 358 358 358 358 358 358 359 359 358 357 358 357 357 357 357 356 355 353 353 353
349 347 348 349 349 349 349 348 347 345 343 342 342 341 343 343 342 341 340 340 341 344 346 347 348 349 350 351 351 353 355 356 357 357 357 357 356 355 355 356 355 355 355 356 357 358 359 360 360 358 357 357 358 359 358 358 359 359 358 358 359 359 358 358 358 357 358 358 358 357 356 355 354 353
345 345 346 346 346 346 345 345 343 339 335 333 333 333 333 334 335 336 337 339 342 345 346 346 347 348 348 349 350 351 353 354 355 356 356 356 356 356 355 356 356 356 356 356 357 359 359 360 360 360 358 358 358 358 358 360 360 359 358 358 359 360 359 359 358 358 358 358 357 357 356 356 355 354
342 341 337 335 337 338 336 334 334 331 330 330 332 333 335 338 340 342 343 344 345 345 346 345 346 347 347 349 350 350 351 352 353 353 353 353 354 355 355 356 356 357 357 357 357 358 358 357 359 360 360 360 359 358 358 359 358 357 358 359 358 359 359 359 359 359 359 358 357 356 356 356 356 355
338 333 325 323 327 329 327 325 326 330 333 335 337 340 342 343 344 345 346 347 347 347 347 347 347 347 347 348 349 349 350 351 351 351 352 353 354 354 355 355 355 356 356 356 357 358 357 357 357 359 360 360 359 358 358 358 356 356 358 359 359 358 358 358 359 359 359 359 358 357 357 357 356 355
330 327 323 323 325 328 330 333 336 340 342 340 340 342 343 343 345 347 347 346 346 346 346 345 345 345 345 346 347 348 349 350 351 352 352 352 353 353 353 355 355 355 355 356 357 358 358 358 358 359 360 359 358 358 358 358 357 357 358 359 359 359 359 359 359 359 359 359 359 358 358 358 357 356
324 325 325 326 328 332 336 339 341 342 342 340 339 342 342 342 345 346 343 341 341 343 342 340 340 342 343 344 346 347 348 349 350 351 351 351 351 352 352 353 353 353 354 355 356 357 358 359 359 359 359 359 358 358 358 358 357 358 359 359 359 360 359 358 359 359 359 359 359 359 358 358 357 357
329 327 325 326 329 332 334 336 338 340 340 340 340 340 339 338 340 340 336 336 339 339 336 335 336 338 340 342 343 344 345 346 347 347 347 348 348 350 351 353 353 353 353 353 354 355 356 358 358 358 358 359 358 358 358 358 357 357 358 358 359 359 359 359 359 359 359 360 359 359 359 359 359 358
328 328 328 329 332 335 336 338 339 340 339 337 335 334 333 332 334 333 331 332 335 334 332 332 334 335 337 337 336 337 339 342 344 344 344 344 346 347 349 351 353 353 353 353 354 354 355 356 357 357 357 357 356 356 357 357 356 357 358 358 358 359 359 359 359 359 360 361 361 360 360 360 360 360
327 330 334 336 336 337 337 337 336 334 333 332 331 330 329 329 329 330 329 330 331 329 329 332 333 333 332 332 332 333 335 337 339 340 340 342 344 345 347 349 351 352 353 353 353 354 354 355 355 356 356 355 354 355 355 356 356 357 358 358 359 358 358 359 360 360 361 362 361 361 361 361 360 361
329 333 335 336 335 335 334 332 331 330 330 330 330 330 329 328 328 329 329 328 327 326 328 330 330 329 330 330 332 333 333 333 333 334 336 340 342 343 344 344 347 350 351 352 352 353 353 353 354 355 355 355 355 355 355 356 357 357 358 358 359 358 357 358 359 360 361 363 361 360 361 362 361 361
330 333 333 333 334 333 331 331 330 330 329 329 329 329 328 328 327 327 327 326 325 325 327 327 326 327 328 329 330 330 330 331 332 333 334 336 338 340 342 342 343 346 348 348 349 351 351 351 352 352 353 353 354 354 354 354 355 356 356 357 357 357 357 357 357 357 358 359 357 358 361 362 361 360
330 331 331 331 332 330 329 330 329 329 329 329 328 327 327 326 325 325 326 325 325 326 326 325 325 327 328 327 328 328 328 330 331 331 332 332 333 337 339 339 340 341 342 342 344 346 347 347 347 347 349 351 351 350 351 352 352 353 354 354 354 354 355 356 357 356 356 356 356 357 360 361 361 360
329 329 328 328 329 328 328 328 327 327 327 326 326 326 325 324 324 325 325 325 326 326 324 324 324 326 326 325 326 326 327 328 328 329 330 330 331 333 334 333 333 334 335 336 337 338 340 341 342 343 347 349 347 346 348 350 350 350 352 353 353 353 353 354 355 355 356 356 356 357 358 359 359 359
327 327 327 327 327 326 326 325 325 325 325 324 324 324 324 323 323 324 324 325 325 324 323 323 324 324 324 324 325 326 326 326 327 327 327 328 329 329 330 329 330 330 330 330 331 332 334 335 337 340 344 346 345 344 345 346 347 347 348 350 350 351 351 351 353 353 354 354 355 355 356 356 357 357
326 325 325 325 324 324 324 323 323 323 323 322 322 322 322 322 322 322 323 323 322 322 322 322 323 323 323 323 324 324 324 325 325 326 326 326 327 327 327 328 327 327 327 328 329 331 331 332 335 339 340 340 340 340 340 341 341 341 342 342 344 346 348 350 351 351 352 353 353 353 354 354 355 355
324 324 324 323 323 323 322 322 321 321 321 321 321 320 320 320 320 321 321 320 320 321 322 322 322 322 323 323 323 323 323 323 324 324 324 324 324 325 325 325 324 325 326 327 329 329 329 331 333 333 331 330 330 331 333 335 336 337 337 338 341 345 347 349 350 349 349 350 351 352 351 351 352 352
323 323 323 323 322 322 322 321 321 321 320 320 320 319 319 319 319 319 319 318 319 320 321 321 321 321 322 322 322 322 322 322 322 323 323 323 323 323 322 322 323 324 325 326 326 326 326 327 328 326 325 326 327 329 331 333 334 335 335 336 338 339 341 344 347 348 349 350 350 350 349 348 348 349
322 322 322 322 322 322 322 322 321 321 320 320 319 319 319 319 318 318 318 318 318 319 318 319 319 320 320 320 320 320 320 320 321 321 321 321 321 321 321 321 322 323 323 323 323 324 324 324 324 324 325 326 327 329 330 331 331 332 332 333 334 336 337 339 341 343 345 346 347 348 348 348 348 348
322 322 322 322 322 322 322 322 321 321 320 320 319 319 318 318 318 317 317 317 317 317 317 317 317 317 318 318 318 318 318 319 319 319 319 319 319 319 320 320 321 321 321 321 322 322 322 322 323 324 324 325 326 327 328 329 329 329 330 331 332 333 334 335 336 337 338 341 343 344 346 347 348 348
320 320 321 321 322 322 322 322 321 320 320 319 319 318 318 317 317 317 316 316 316 316 316 315 315 315 316 316 317 317 317 317 317 317 317 317 318 319 319 319 319 319 320 320 320 320 321 321 322 323 323 324 325 325 326 327 327 328 328 329 330 330 331 332 335 337 338 339 340 342 344 347 348 349
318 318 319 319 320 321 321 321 320 320 319 318 318 317 317 316 316 316 316 315 315 315 314 314 314 314 314 315 315 315 315 315 315 315 316 317 317 318 318 318 318 318 318 318 319 319 320 320 321 321 322 323 323 324 325 326 326 326 327 327 328 329 330 332 334 335 336 337 339 340 341 342 344 346
Wind_Speed
4 4 4 4 4 3 3 5 4 3 4 5 5 5 5 4 4 4 3 5 5 5 6 5 2 3 6 8 8 8 8 10 12 11 10 11 10 12 14 13 12 13 13 14 14 14 15 15 15 15 15 15 15 15 15 15 15 16 16 16 17 17 16 16 17 17 17 17 17 17 17 17 18 18
3 3 3 3 3 3 4 5 4 2 3 5 5 4 4 4 5 5 4 5 6 6 7 7 6 6 7 8 9 9 9 11 12 10 10 11 11 13 13 12 12 13 13 14 15 15 16 16 16 17 17 17 17 16 16 16 16 17 17 17 17 18 18 17 17 17 17 17 17 17 17 17 17 17
3 3 3 3 4 4 5 5 5 4 4 5 5 4 4 4 5 6 6 5 6 8 9 9 8 9 8 8 9 9 9 10 11 10 10 12 13 15 14 13 14 15 15 16 16 17 17 18 18 18 18 18 18 17 16 16 16 16 17 18 18 18 19 18 18 18 17 17 17 17 16 16 16 17
3 3 4 4 4 5 5 6 6 6 6 6 6 5 5 5 5 5 7 7 8 10 10 10 10 10 9 9 8 8 8 9 10 10 11 13 14 14 13 14 16 16 16 17 18 18 18 19 19 18 18 17 18 17 17 16 16 16 16 17 18 18 19 20 19 18 18 18 17 17 16 16 16 16
5 5 5 5 5 6 6 6 6 7 6 6 6 6 5 6 6 5 7 9 10 10 10 10 11 10 10 9 8 9 10 10 10 11 12 12 12 13 13 14 15 16 15 16 19 18 18 18 19 18 17 17 17 18 18 19 18 18 17 17 18 19 20 21 19 19 19 18 18 17 16 16 15 15
6 6 6 7 7 7 7 7 7 7 7 7 7 6 6 7 7 6 7 9 10 11 11 11 11 11 10 10 10 10 11 12 12 13 13 13 13 13 14 14 15 16 15 17 20 19 18 19 18 17 17 17 18 18 19 19 20 19 18 17 17 19 21 21 20 19 19 19 19 18 17 16 16 15
7 7 7 8 8 7 7 7 8 8 7 7 7 7 8 8 8 8 8 9 10 12 12 12 12 11 11 12 12 12 12 13 14 14 14 15 15 14 15 16 16 16 16 18 20 19 19 20 18 17 18 19 19 19 18 18 18 18 18 18 18 20 22 22 20 18 19 19 19 19 18 17 16 15
7 8 8 8 8 8 8 8 8 8 8 8 8 8 8 8 9 8 8 8 9 11 12 12 12 12 12 13 13 12 13 14 14 14 15 16 16 16 16 17 17 16 18 20 19 17 20 21 18 17 20 21 20 19 17 16 16 16 17 18 19 21 22 22 19 17 18 19 19 19 18 17 16 14
9 9 9 9 9 9 9 9 9 8 8 8 8 9 9 8 8 8 9 9 9 11 12 12 12 13 13 13 12 12 13 14 14 15 16 17 17 16 16 16 17 18 18 19 18 19 21 20 18 19 22 23 22 20 17 15 15 15 15 17 18 20 20 19 17 16 16 17 18 18 18 17 16 14
10 10 10 10 10 10 10 10 9 8 8 8 9 9 9 9 9 10 10 10 10 11 12 13 13 13 13 13 13 12 12 14 16 17 18 17 15 14 16 17 17 17 18 18 19 19 19 18 19 21 22 23 23 22 18 15 13 13 14 15 16 17 18 17 17 16 16 16 17 18 17 17 15 14
11 11 11 11 11 11 11 11 10 10 9 9 9 9 9 9 10 11 11 11 11 12 13 13 14 13 13 13 14 14 14 14 15 15 16 17 15 14 15 16 17 17 18 19 19 17 18 20 21 21 22 22 23 22 19 16 13 12 13 14 15 16 17 17 17 17 17 17 17 17 17 16 15 13
12 12 12 12 12 12 12 11 11 10 10 10 10 10 10 10 10 11 11 11 11 12 13 13 13 14 13 13 14 14 13 13 13 13 15 17 17 16 15 15 16 17 18 19 18 17 18 21 22 21 21 22 21 21 20 17 13 12 13 13 14 15 16 17 18 18 18 18 17 17 16 16 15 13
13 13 13 13 13 11 11 13 14 12 11 11 11 10 9 10 10 11 11 11 11 12 13 13 13 14 14 14 14 15 14 14 15 15 16 17 17 17 17 17 16 16 17 19 18 17 18 21 21 21 20 19 18 18 18 15 12 13 15 14 13 14 15 16 17 18 18 18 18 17 16 16 15 13
14 14 14 14 13 13 14 16 16 15 14 13 13 13 12 11 11 11 11 12 12 12 13 14 14 15 16 16 16 17 17 17 18 17 17 17 18 18 18 18 16 15 16 17 18 18 19 20 21 20 18 17 17 15 14 13 14 15 15 13 13 14 15 15 16 17 18 18 18 17 16 15 15 14
15 15 15 15 14 15 16 16 14 14 14 14 13 14 14 14 13 13 13 13 13 13 14 15 16 16 18 18 19 19 20 20 20 20 19 19 19 18 17 17 16 13 13 16 18 19 19 18 19 20 18 17 16 14 13 15 17 16 14 13 13 14 14 15 15 16 17 17 17 17 16 15 15 14
14 15 15 15 15 14 13 13 12 12 13 14 13 13 13 14 15 16 16 15 14 14 14 16 17 17 19 20 20 20 20 20 21 21 21 20 21 21 20 19 18 15 13 15 18 20 19 18 18 19 17 16 16 15 16 17 18 17 15 13 13 12 13 13 13 14 15 15 15 16 16 16 15 14
14 14 14 14 15 14 12 11 11 11 12 13 14 14 15 16 17 17 17 18 17 17 16 16 17 18 19 20 21 20 19 20 21 21 21 21 21 22 22 21 21 18 16 17 20 21 20 17 17 17 16 16 16 16 16 17 19 19 15 12 11 10 9 9 10 10 11 11 12 13 14 14 13 13
14 14 14 13 14 14 12 11 11 11 11 11 13 14 15 16 17 17 17 17 17 17 18 19 20 20 19 20 21 19 18 18 18 19 21 21 21 23 23 23 23 23 21 19 19 20 18 16 16 17 17 16 16 16 15 17 19 19 15 10 9 7 6 7 8 8 8 9 9 10 11 11 11 11
15 15 14 14 14 13 12 12 12 11 10 10 11 12 14 14 15 15 15 15 16 16 17 18 20 20 20 19 20 20 19 19 20 21 21 22 23 23 24 23 23 23 21 18 17 19 18 16 17 19 18 17 17 15 15 16 18 17 13 10 9 10 11 11 11 10 9 10 10 11 11 11 11 12
14 12 11 12 12 10 10 12 14 14 14 12 11 12 12 13 13 14 14 15 17 18 18 19 21 22 23 23 24 24 24 25 26 25 23 21 21 21 22 22 22 21 19 17 17 20 20 19 18 19 19 18 17 16 15 15 14 14 13 13 14 16 17 16 14 13 12 13 13 13 12 12 13 13
11 10 9 9 7 6 8 11 13 14 13 11 11 12 12 12 13 14 13 14 17 18 19 20 23 24 24 24 24 23 22 21 21 21 20 18 18 20 20 20 21 21 21 18 17 20 21 20 18 18 18 17 16 16 15 14 13 14 16 17 17 17 18 18 17 16 15 15 15 16 16 15 15 15
8 7 8 7 4 4 6 9 10 11 11 10 10 13 14 15 15 16 15 15 15 16 18 20 22 23 23 23 23 22 20 18 16 17 19 17 17 20 21 21 22 22 21 19 16 16 19 18 17 18 18 17 16 16 14 13 13 15 16 17 18 18 18 18 19 18 17 17 17 18 18 18 17 16
7 5 5 6 6 6 8 9 10 11 11 10 10 12 14 16 16 16 15 14 15 16 18 19 21 22 22 22 21 21 21 18 16 17 18 16 16 19 21 21 20 18 17 16 14 14 17 18 17 18 17 14 14 15 15 15 15 16 16 17 18 18 18 18 19 20 20 19 18 18 19 19 18 18
9 5 2 3 5 7 9 10 11 12 12 12 12 11 12 14 16 16 17 19 20 20 20 20 20 20 20 18 18 18 18 17 14 14 15 15 16 18 19 20 19 18 18 17 15 16 17 16 17 20 19 15 14 17 18 18 18 17 16 16 17 17 17 18 18 20 21 22 21 19 19 19 19 19
8 7 3 2 6 8 10 12 13 13 13 14 14 13 13 15 18 19 21 23 22 20 18 17 17 16 16 16 15 15 15 13 12 12 12 13 15 18 19 20 21 21 21 19 17 18 18 16 16 18 19 18 17 19 20 19 18 17 16 15 15 15 15 16 17 18 19 21 21 20 19 18 18 19
7 7 6 10 13 14 14 15 15 14 14 15 15 15 16 17 19 20 20 19 17 14 14 14 14 14 14 14 14 13 13 12 12 13 13 14 15 17 19 21 21 23 24 23 21 20 19 18 17 16 18 19 19 20 19 18 17 16 15 14 14 14 15 16 17 17 17 17 18 19 19 19 19 19
6 6 9 13 15 15 14 14 14 14 13 13 14 15 15 15 15 15 14 12 11 12 13 13 14 14 14 14 13 14 14 14 14 14 15 16 16 17 18 20 20 22 25 25 24 22 20 20 19 18 18 19 19 19 18 17 17 17 16 15 15 16 16 16 17 18 18 17 17 18 19 20 20 20
5 7 9 12 14 13 12 12 11 10 11 12 12 11 10 10 10 10 9 9 10 12 12 13 13 13 13 13 14 14 15 16 17 16 17 17 17 17 18 20 20 21 22 23 22 21 21 22 20 18 17 18 17 17 17 17 18 19 18 16 16 16 16 17 17 18 19 18 17 16 17 17 18 18
8 8 8 8 10 11 10 9 7 7 10 11 10 7 6 7 7 7 7 7 9 10 11 12 13 13 13 14 14 15 16 17 17 17 17 17 17 17 18 18 19 19 19 19 19 18 18 19 19 18 19 19 18 18 19 19 19 20 19 18 18 18 17 18 18 18 19 18 17 16 16 16 16 17
8 8 7 7 8 8 7 6 5 6 7 8 6 5 5 6 6 5 6 8 8 10 12 12 13 13 13 14 14 15 15 15 15 15 16 17 17 17 18 18 19 18 17 16 17 16 15 15 16 17 19 20 19 20 20 20 20 20 19 19 19 18 17 17 17 18 18 19 18 18 17 17 17 17
7 8 8 7 7 7 7 6 6 6 6 5 5 5 5 5 5 5 6 8 8 9 11 12 12 13 13 13 14 13 13 13 13 13 15 16 17 18 19 19 19 18 16 15 15 14 14 14 15 16 17 19 20 20 20 20 21 21 21 20 19 18 17 17 18 19 18 19 20 20 19 18 18 18
7 8 8 8 7 7 8 8 8 7 5 4 4 4 4 5 4 4 6 7 6 8 10 11 12 12 12 12 13 13 14 13 13 13 14 15 16 17 18 19 19 18 17 16 15 14 13 13 14 15 16 18 21 22 21 21 22 22 22 21 21 20 19 19 19 18 17 16 18 20 20 20 20 19
7 7 7 7 7 6 7 6 6 5 4 3 3 3 4 5 5 5 7 7 8 10 11 11 11 12 12 13 13 13 14 13 13 14 14 15 15 16 16 17 18 19 18 17 16 15 15 14 14 15 17 19 21 21 21 21 22 21 20 20 20 19 18 17 17 17 15 14 16 19 21 21 21 20
5 6 7 7 6 5 5 5 4 4 4 4 4 4 5 5 6 7 7 8 10 12 11 11 11 12 12 13 13 13 14 14 15 15 14 14 15 15 15 16 17 18 18 18 18 18 17 16 15 15 16 16 18 18 18 19 20 20 18 18 18 18 17 17 17 17 15 15 17 19 20 20 20 20
6 7 7 7 5 4 5 4 4 4 5 5 6 6 7 7 7 7 8 10 12 12 11 11 12 12 12 12 12 13 14 15 15 15 14 14 14 15 15 16 16 17 17 18 19 18 18 18 17 17 17 17 17 16 16 16 17 18 19 18 17 16 17 18 19 19 18 18 19 20 20 20 20 20
7 7 7 7 5 5 5 5 4 5 7 7 7 8 8 8 8 7 9 11 12 11 11 12 12 11 11 12 12 13 14 14 14 14 14 14 15 14 14 15 16 16 17 18 18 18 18 19 18 18 18 17 14 13 13 13 13 15 18 19 18 17 18 18 19 20 21 22 22 20 20 21 22 21
8 8 7 7 6 5 6 6 6 7 7 8 9 9 9 9 8 8 9 10 10 10 11 12 12 11 11 12 13 13 13 13 14 14 14 14 14 14 14 15 16 16 17 18 18 18 18 18 17 16 15 12 10 9 12 16 16 16 16 18 19 19 19 19 20 21 21 21 21 21 21 23 24 22
9 8 7 7 7 6 7 7 8 8 8 9 10 10 10 9 9 9 9 9 8 10 12 12 11 11 12 13 13 13 13 13 14 14 14 14 14 14 14 15 16 16 17 18 19 18 17 17 16 15 12 10 8 8 12 17 20 19 17 19 22 23 22 22 22 22 21 20 21 21 21 23 25 24
9 9 8 8 8 8 8 8 8 9 9 9 9 10 10 11 11 11 10 9 9 11 12 12 11 12 13 12 12 13 13 14 14 14 14 14 14 14 15 15 16 17 18 19 18 16 15 15 14 11 10 10 12 13 16 21 27 28 25 25 27 28 25 22 21 22 22 21 21 21 22 23 25 25
10 10 10 10 11 10 10 10 10 10 10 10 10 11 11 12 13 13 12 12 12 12 12 12 12 13 13 12 13 13 13 13 13 14 14 14 14 14 15 16 17 18 18 18 17 16 14 13 12 14 16 19 21 23 23 25 29 31 27 23 22 23 23 21 22 23 23 22 21 21 23 23 22 22
11 11 11 11 11 11 11 11 11 11 11 12 12 12 12 13 13 13 14 14 13 13 14 14 14 13 13 13 13 14 14 14 14 14 14 14 15 15 16 17 17 17 17 17 17 17 16 15 17 20 22 22 22 22 20 18 20 23 23 20 18 19 21 22 23 23 24 24 23 23 24 24 23 22
11 12 13 13 13 13 13 12 12 11 12 13 13 13 13 14 14 14 14 15 15 15 16 16 15 15 15 14 13 14 15 15 15 15 15 15 16 16 16 16 16 16 17 18 19 19 19 19 19 19 19 18 18 17 16 16 18 21 24 24 21 19 19 21 23 24 25 26 26 25 25 24 20 18
12 13 13 14 14 15 14 13 13 13 14 14 13 13 14 15 15 15 15 15 15 16 17 17 17 18 17 16 15 15 16 16 16 16 16 16 17 17 17 16 16 17 18 19 20 21 20 20 18 17 17 17 17 17 18 20 21 22 24 25 24 22 20 22 24 25 26 28 28 28 29 28 24 21
12 13 14 14 14 15 14 13 13 14 15 15 14 14 15 16 15 15 16 16 16 17 18 18 19 19 19 18 17 16 17 18 18 18 19 18 18 17 17 17 17 18 18 19 20 21 21 20 18 18 18 18 17 18 19 21 22 23 24 25 26 26 25 23 22 21 22 23 25 25 27 30 32 33
12 12 12 13 13 14 13 12 12 12 13 14 15 15 16 17 17 17 17 17 18 18 19 20 20 20 20 20 19 19 19 20 21 20 20 19 18 18 18 18 18 18 18 19 20 21 21 21 20 19 19 19 19 19 21 22 23 24 25 25 25 26 25 22 21 20 21 21 23 24 26 27 29 32
Wind_Direction
237 233 222 237 266 283 297 302 308 329 327 320 319 324 335 337 325 322 332 329 322 325 325 317 331 352 329 319 310 314 316 308 316 324 314 314 314 307 313 323 326 329 330 330 330 327 324 320 318 318 319 317 314 312 309 309 311 315 318 321 325 326 317 306 302 303 305 307 309 312 316 319 323 328
247 250 248 253 268 276 283 290 298 311 306 301 305 316 324 320 314 316 318 314 314 319 318 314 325 335 322 315 315 320 317 311 317 322 315 312 312 312 317 322 329 336 340 341 340 337 334 329 322 317 314 312 312 310 307 305 306 308 310 313 319 325 323 313 305 304 304 305 306 308 312 315 319 324
247 256 265 272 276 280 286 288 289 291 291 292 296 298 302 300 298 304 303 298 304 309 309 309 313 313 313 316 315 314 309 306 315 322 315 311 315 318 320 320 322 326 332 338 337 335 335 334 331 325 316 310 307 306 305 302 302 304 305 307 310 319 324 319 309 304 305 304 304 306 309 312 316 319
249 260 265 267 271 276 280 281 280 279 274 277 282 282 284 286 282 288 293 291 295 301 303 304 305 307 311 313 308 306 303 301 312 317 311 311 314 314 314 314 314 313 319 329 332 331 331 331 333 331 324 315 306 303 302 301 301 302 302 302 303 311 320 320 313 305 304 304 303 305 307 309 312 315
251 252 256 260 263 265 269 273 276 277 272 267 268 268 269 274 277 282 288 290 295 300 302 302 304 309 311 308 306 306 302 301 308 310 308 308 308 307 308 309 309 307 309 319 327 329 330 332 333 333 333 327 317 309 303 301 301 300 300 298 297 303 313 318 313 304 302 302 301 302 304 306 309 310
250 247 250 253 253 253 255 262 269 274 277 276 275 274 275 279 282 285 289 292 295 298 301 303 304 306 307 306 307 306 304 305 308 308 308 307 305 305 306 306 307 305 303 313 323 326 329 332 332 332 336 336 330 323 314 307 303 299 298 296 293 297 306 312 310 302 300 300 300 300 301 303 305 306
249 249 251 253 253 253 252 257 266 273 277 280 283 283 284 286 289 292 291 290 292 296 301 303 302 303 303 302 303 303 303 304 306 307 307 307 305 304 304 305 304 303 305 313 319 320 323 326 327 328 333 335 334 330 324 316 308 301 295 293 291 294 300 304 303 298 297 298 299 299 299 300 302 302
251 251 253 253 254 256 257 258 262 266 268 270 274 276 278 280 283 287 286 282 284 289 294 296 297 297 296 295 296 298 299 300 302 302 303 304 305 303 304 305 304 304 308 311 314 315 317 320 320 320 325 330 332 333 329 322 314 307 299 293 290 290 293 296 294 292 294 296 298 298 297 298 300 299
251 251 251 252 251 250 251 254 256 260 262 266 269 271 274 276 278 279 278 276 276 278 283 288 290 289 289 290 291 291 293 296 299 299 298 299 301 301 303 305 306 307 308 310 314 315 315 317 315 313 318 324 329 332 333 327 320 313 306 299 294 292 291 289 285 286 289 293 296 297 296 296 298 297
249 249 248 248 248 248 249 251 254 255 256 260 265 268 270 272 273 273 272 272 271 273 278 283 286 287 289 291 291 290 290 293 297 299 298 298 298 299 303 306 307 309 309 311 312 311 313 315 312 309 313 319 324 327 330 332 328 318 310 305 299 297 293 286 281 281 284 289 293 295 295 295 296 296
249 248 249 247 245 246 249 252 254 254 254 257 259 263 267 269 271 273 276 276 276 278 281 284 287 290 293 293 292 292 290 287 288 294 298 299 300 300 301 303 305 307 308 309 309 311 315 317 314 311 311 315 318 320 324 328 328 322 316 309 302 297 294 287 281 278 280 284 288 291 293 293 294 295
252 252 252 251 248 247 248 251 254 254 255 259 262 262 264 266 269 273 278 281 282 282 284 287 290 291 291 290 290 292 292 287 286 291 295 296 298 299 298 299 301 303 304 306 309 314 318 317 316 314 312 311 311 312 316 319 320 320 317 314 309 304 298 290 283 278 278 279 283 288 291 293 294 294
258 257 256 255 255 252 249 252 257 258 255 257 263 266 267 268 268 271 274 277 278 279 282 285 287 288 287 288 290 293 294 293 292 293 291 289 292 296 297 297 298 299 300 303 306 311 316 315 313 311 309 308 306 307 311 313 313 312 309 308 309 308 304 297 288 281 277 276 279 284 288 292 293 293
261 259 259 258 258 258 257 258 259 259 256 256 259 259 259 261 264 267 268 269 271 275 279 283 286 288 289 291 293 294 295 295 294 293 291 289 290 293 294 294 296 295 296 300 303 307 312 312 309 307 307 306 306 308 309 307 307 307 304 303 305 306 306 301 293 285 279 276 278 282 286 290 291 291
260 260 259 258 255 254 256 260 263 263 260 257 255 255 254 253 254 257 260 263 268 272 275 280 285 288 290 291 292 293 295 296 297 297 296 292 291 292 291 292 294 294 295 297 298 302 307 308 303 302 303 304 306 307 303 305 313 316 308 302 302 303 304 303 297 289 282 279 280 282 285 288 288 288
259 259 260 260 259 255 251 253 260 267 267 263 260 257 255 254 253 253 254 257 262 268 274 281 284 286 288 291 291 292 296 299 300 300 296 292 290 290 288 289 291 292 296 297 295 298 303 302 297 296 300 303 304 305 300 301 314 323 315 301 297 298 300 302 299 292 286 285 285 285 286 286 285 284
258 259 260 261 263 263 259 255 254 255 258 262 266 266 264 264 264 263 262 260 259 261 268 274 278 281 284 287 289 291 296 299 298 297 295 293 292 290 288 288 289 291 293 294 293 294 296 298 296 297 302 304 303 305 301 296 306 319 318 302 293 294 301 308 307 300 293 291 291 290 289 287 284 282
259 259 259 258 259 262 263 259 254 249 248 252 259 264 266 267 270 273 275 276 274 270 268 268 272 277 279 281 285 290 293 293 293 295 297 297 295 292 289 287 285 284 283 284 285 287 290 296 299 299 303 306 303 303 301 296 302 312 317 309 297 295 309 322 318 308 297 290 290 291 289 287 285 281
260 259 257 257 259 262 262 257 249 245 250 257 257 257 258 261 265 270 273 276 277 276 272 269 271 277 279 280 284 289 290 289 289 291 294 295 293 290 288 285 282 279 277 274 272 278 285 292 297 299 303 306 304 301 300 299 300 302 307 315 312 305 306 309 306 299 290 283 281 283 284 285 283 280
257 257 256 256 259 259 257 253 250 250 258 268 271 267 265 267 269 270 272 274 276 279 281 279 279 282 283 284 285 287 287 286 287 289 289 288 287 285 285 285 283 283 283 280 277 280 285 291 295 298 302 305 303 300 298 300 299 293 293 304 310 309 309 309 305 297 287 279 275 275 277 279 280 278
254 251 247 249 260 266 255 252 259 267 274 280 283 280 281 285 284 282 284 285 285 288 291 292 294 295 295 295 295 294 292 292 293 289 283 281 282 283 284 285 285 288 291 293 291 286 286 293 297 299 303 303 300 298 299 303 305 302 301 304 307 310 313 313 312 305 291 279 272 267 267 269 272 272
243 245 250 255 262 261 258 265 274 285 294 297 293 290 290 291 290 292 295 296 294 295 296 297 301 303 303 304 303 300 301 304 300 284 275 278 284 284 283 286 290 293 293 297 300 291 287 294 300 301 304 302 297 298 301 303 304 305 305 305 305 308 310 311 312 310 300 287 276 268 264 263 262 262
250 253 268 283 288 272 271 284 292 294 300 301 297 297 295 292 293 296 301 304 302 298 296 297 299 299 299 299 297 296 301 304 299 285 278 278 282 282 282 285 289 291 291 298 307 300 293 297 302 304 305 302 300 304 304 302 302 301 301 300 299 302 303 303 306 309 307 300 291 281 273 266 262 263
308 312 285 270 295 293 285 293 297 296 299 299 298 300 296 293 296 297 296 297 298 298 297 297 297 296 295 293 289 289 295 298 296 291 283 276 278 282 284 286 285 284 288 297 305 301 298 300 303 303 303 299 300 303 303 302 302 301 301 300 297 297 297 298 303 308 308 306 302 296 288 277 269 268
329 359 25 292 296 300 297 300 300 297 299 302 301 301 296 292 293 293 293 295 298 301 302 300 300 301 301 300 297 296 298 300 300 297 290 283 283 284 285 288 289 287 287 292 300 302 301 298 294 296 296 292 292 297 300 300 299 299 303 302 298 296 294 295 298 301 301 302 301 300 297 290 280 273
318 332 323 294 289 293 298 302 300 298 303 307 307 303 299 295 294 295 298 301 303 305 305 305 307 309 309 309 309 309 308 307 306 305 301 299 296 291 288 289 290 288 288 291 295 298 298 293 288 289 290 290 293 296 297 295 296 300 303 302 298 296 293 291 292 293 295 299 298 296 297 296 291 283
334 320 308 300 299 301 304 306 305 306 307 309 308 306 303 302 305 307 306 302 301 303 304 306 308 309 312 315 316 316 315 314 313 310 304 300 299 296 293 291 287 286 288 291 292 291 289 286 286 287 288 291 295 295 293 294 298 301 301 299 296 295 293 290 288 287 289 293 294 292 291 290 290 289
306 293 295 300 303 305 304 303 306 308 304 303 305 307 311 314 317 315 307 298 301 305 307 310 312 313 316 317 315 316 316 313 310 306 300 298 298 296 295 293 291 289 290 290 289 286 283 282 283 285 285 285 288 289 290 295 297 298 299 298 295 293 291 288 287 286 285 285 287 286 284 282 284 287
288 290 292 296 300 302 301 301 306 304 300 303 309 317 327 325 314 310 315 320 322 318 316 318 318 314 312 312 312 315 315 311 308 307 307 307 306 302 299 296 295 294 292 289 286 284 279 278 280 282 281 279 280 282 286 289 291 293 296 295 292 291 289 286 285 285 284 283 283 282 280 278 279 281
298 299 299 292 288 288 288 289 289 285 286 295 307 322 333 320 303 312 337 341 330 317 313 313 310 307 307 308 309 312 312 310 311 315 318 316 312 310 309 304 300 298 295 291 288 286 283 281 282 283 283 282 281 280 283 287 289 290 290 289 289 289 288 286 286 284 283 282 281 277 274 275 277 277
300 296 297 293 286 282 279 269 254 249 260 280 291 302 317 309 300 321 338 331 320 314 314 312 308 307 307 308 308 308 307 306 309 314 319 317 314 315 314 309 304 302 300 296 291 288 285 284 285 285 286 288 288 287 287 289 288 287 287 286 286 286 288 290 289 285 283 283 281 279 275 272 272 271
287 284 285 284 276 268 262 255 245 241 248 270 278 287 311 304 295 323 337 328 322 323 322 316 311 311 311 311 312 310 306 304 305 308 310 309 309 312 313 309 305 306 307 306 303 299 294 287 284 285 285 285 287 290 292 291 286 284 286 286 284 283 286 288 288 288 288 284 282 281 279 275 273 271
292 284 278 272 265 259 254 252 251 248 250 263 271 293 319 309 305 330 339 333 332 331 324 317 314 315 315 315 315 313 310 309 309 309 305 302 303 306 307 305 304 306 309 311 311 308 304 299 294 291 289 288 289 289 290 289 286 285 285 287 288 289 290 289 288 289 289 284 280 282 281 277 274 270
296 286 276 265 260 263 266 264 263 271 280 288 292 302 313 313 317 328 332 333 334 330 323 317 318 318 316 315 315 314 313 312 312 310 306 302 302 302 302 302 303 306 311 314 313 313 314 314 310 302 295 294 293 287 281 281 284 286 287 286 287 290 292 292 291 289 286 281 281 283 282 279 276 274
288 277 271 265 259 263 274 275 282 295 298 298 302 306 309 314 320 325 331 337 334 327 321 321 321 318 316 317 317 315 313 311 310 311 310 307 305 302 302 303 305 309 312 312 312 317 324 326 325 319 312 308 304 295 286 280 280 285 289 290 289 290 293 294 293 290 288 286 284 282 280 279 280 280
281 275 272 269 263 264 272 280 292 301 302 306 311 312 311 314 318 323 332 335 330 323 322 323 320 316 317 318 316 314 313 311 311 312 313 311 308 306 306 308 310 312 311 308 308 313 316 317 319 318 314 311 308 303 301 299 294 293 293 293 293 295 297 297 294 290 288 286 282 278 278 279 281 283
278 277 273 270 267 270 280 288 296 300 302 307 310 310 311 315 318 322 327 326 321 320 322 319 314 314 318 318 315 314 314 313 313 313 313 312 311 310 310 310 310 310 308 306 307 307 306 305 306 304 302 305 305 303 308 312 311 305 299 295 295 297 298 296 291 288 287 284 280 278 278 279 281 282
273 272 271 274 276 279 284 290 296 301 303 304 305 306 309 313 316 319 320 318 318 321 320 315 312 315 317 316 314 314 315 315 314 312 312 311 311 311 309 308 307 308 307 305 303 303 302 300 298 297 302 309 307 304 309 310 305 300 297 295 293 294 294 292 289 288 287 285 284 283 280 279 281 283
266 272 275 280 281 280 282 285 288 291 294 297 301 304 308 311 313 315 315 317 320 320 315 313 313 313 313 313 312 312 313 313 312 311 311 311 311 310 309 308 307 307 305 302 301 303 303 300 299 310 324 320 304 299 301 298 294 291 290 287 284 281 281 283 286 289 291 291 290 289 287 285 286 287
266 269 272 276 278 278 280 282 282 284 287 292 296 300 304 306 308 310 313 317 319 317 313 311 311 310 308 310 311 310 309 308 306 307 308 308 308 308 307 306 305 303 300 299 300 303 304 304 310 318 317 307 298 294 290 285 284 286 288 287 284 282 281 281 283 285 288 291 293 293 291 290 290 290
272 271 272 275 277 278 278 278 280 283 286 289 292 295 298 301 303 306 309 311 312 313 312 310 309 309 308 309 310 308 307 305 304 304 304 305 304 304 303 302 299 297 297 298 300 300 300 301 304 303 300 296 293 291 286 280 280 286 291 293 292 291 289 287 286 284 284 286 289 288 288 289 289 288
275 275 275 276 277 278 278 276 278 284 288 290 293 296 297 297 298 301 303 304 306 308 308 307 308 308 307 305 306 306 305 304 304 303 303 303 302 301 301 299 297 298 298 297 296 297 298 299 300 299 297 294 292 289 285 284 287 291 294 295 295 293 289 288 288 286 283 283 282 282 283 287 288 285
278 277 277 278 279 278 276 272 272 278 284 288 291 294 294 295 295 297 299 301 303 304 304 304 306 306 305 303 303 303 301 301 302 303 302 301 299 297 297 296 295 296 295 294 294 296 298 298 299 298 296 293 290 286 285 287 289 291 293 295 297 297 294 291 287 283 279 278 276 274 274 274 273 274
282 281 281 283 286 285 278 268 265 269 275 279 283 287 289 291 292 294 295 297 300 302 302 302 302 303 303 301 300 298 298 299 300 300 298 296 293 291 291 292 293 293 293 294 296 297 297 297 297 295 292 290 288 287 286 287 288 290 291 293 295 296 297 295 292 288 284 281 277 275 273 269 265 264
291 296 295 293 295 296 291 281 273 273 277 279 280 283 285 287 288 289 291 293 296 299 301 300 300 301 302 302 299 296 296 296 297 295 293 292 291 290 289 290 291 291 292 293 294 295 296 297 295 292 289 287 286 285 283 283 284 286 288 289 290 291 293 295 295 293 290 286 282 279 278 275 271 269